Location: Amsterdam
(30.7274°N, 84.4357°W)
Time: 10:54:28
(UTC+00:00)

Transit 2A - Visible Passes

Search period start: 16 February 2026 00:00
Search period end: 26 February 2026 00:00
Orbit: 589 x 955 km, 66.7° (Epoch: 16 February)

Date Brightness Start Highest point End Pass type
(mag) Time Alt. Az. Time Alt. Az. Time Alt. Az.
21 Feb 8.6 01:49:05 10° N 01:49:12 10° N 01:49:12 10° N visible
22 Feb 8.4 01:13:44 10° NNE 01:14:14 11° NNE 01:14:14 11° NNE visible
23 Feb 8.4 02:18:30 10° NNW 02:19:43 17° NNW 02:19:43 17° NNW visible
24 Feb 7.7 01:42:18 10° NNW 01:44:54 25° N 01:44:54 25° N visible
25 Feb 7.2 01:06:20 10° N 01:10:12 27° NE 01:10:12 27° NE visible
25 Feb 8.7 02:49:26 10° NW 02:50:35 15° NW 02:50:35 15° NW visible
